TimeCDT,TemperatureF,Dew PointF,Humidity,Sea Level PressureIn,VisibilityMPH,Wind Direction,Wind SpeedMPH,Gust SpeedMPH,PrecipitationIn,Events,Conditions,WindDirDegrees,DateUTC
12:15 AM,23.0,19.4,86,30.09,10.0,ESE,13.8,-,N/A,,Mostly Cloudy,120,2013-04-05 05:15:00
12:35 AM,23.0,19.4,86,30.09,10.0,SE,12.7,-,N/A,,Overcast,130,2013-04-05 05:35:00
12:55 AM,24.8,19.4,80,30.08,10.0,ESE,15.0,-,N/A,,Mostly Cloudy,120,2013-04-05 05:55:00
1:15 AM,24.8,19.4,80,30.07,10.0,ESE,16.1,-,N/A,,Partly Cloudy,110,2013-04-05 06:15:00
1:35 AM,24.8,19.4,80,30.06,10.0,ESE,13.8,-,N/A,,Mostly Cloudy,110,2013-04-05 06:35:00
1:55 AM,24.8,19.4,80,30.06,10.0,East,11.5,-,N/A,,Overcast,100,2013-04-05 06:55:00
2:15 AM,24.8,21.2,86,30.05,10.0,East,11.5,-,N/A,,Overcast,90,2013-04-05 07:15:00
2:35 AM,24.8,21.2,86,30.03,10.0,East,9.2,-,N/A,,Overcast,80,2013-04-05 07:35:00
2:55 AM,26.6,23.0,86,30.02,10.0,SE,11.5,-,N/A,,Overcast,140,2013-04-05 07:55:00
3:15 AM,26.6,23.0,86,30.01,10.0,SE,16.1,24.2,N/A,,Overcast,140,2013-04-05 08:15:00
3:35 AM,26.6,23.0,86,30.00,10.0,ESE,12.7,-,N/A,,Mostly Cloudy,120,2013-04-05 08:35:00
3:55 AM,26.6,23.0,86,29.99,10.0,SSE,12.7,18.4,N/A,,Clear,150,2013-04-05 08:55:00
4:15 AM,26.6,23.0,86,29.97,10.0,SSE,15.0,21.9,N/A,,Partly Cloudy,150,2013-04-05 09:15:00
4:35 AM,26.6,24.8,93,29.96,10.0,SSE,19.6,23.0,N/A,,Mostly Cloudy,150,2013-04-05 09:35:00
4:55 AM,28.4,24.8,86,29.95,10.0,SSE,18.4,26.5,N/A,,Overcast,150,2013-04-05 09:55:00
5:15 AM,26.6,24.8,93,29.94,10.0,SSE,20.7,27.6,N/A,,Overcast,160,2013-04-05 10:15:00
5:35 AM,26.6,24.8,93,29.93,10.0,SSE,24.2,29.9,N/A,,Mostly Cloudy,150,2013-04-05 10:35:00
5:55 AM,26.6,24.8,93,29.92,10.0,SSE,19.6,24.2,N/A,,Mostly Cloudy,150,2013-04-05 10:55:00
6:15 AM,26.6,24.8,93,29.91,10.0,SSE,21.9,27.6,N/A,,Overcast,150,2013-04-05 11:15:00
6:35 AM,28.4,24.8,86,29.89,10.0,SSE,20.7,27.6,N/A,,Overcast,150,2013-04-05 11:35:00
6:55 AM,28.4,24.8,86,29.87,10.0,SE,24.2,28.8,N/A,,Overcast,140,2013-04-05 11:55:00
7:15 AM,28.4,24.8,86,29.86,10.0,SE,21.9,27.6,N/A,,Overcast,140,2013-04-05 12:15:00
7:35 AM,28.4,24.8,86,29.86,10.0,SE,19.6,25.3,N/A,,Mostly Cloudy,140,2013-04-05 12:35:00
7:55 AM,28.4,24.8,86,29.86,10.0,SE,16.1,-,N/A,,Overcast,130,2013-04-05 12:55:00
8:15 AM,28.4,24.8,86,29.86,10.0,SE,18.4,24.2,N/A,,Overcast,140,2013-04-05 13:15:00
8:35 AM,28.4,24.8,86,29.86,10.0,SSE,23.0,26.5,N/A,,Overcast,150,2013-04-05 13:35:00
8:55 AM,28.4,24.8,86,29.84,7.0,SE,25.3,-,N/A,Snow,Light Snow,140,2013-04-05 13:55:00
9:15 AM,28.4,24.8,86,29.84,10.0,SE,21.9,26.5,N/A,,Overcast,130,2013-04-05 14:15:00
9:35 AM,28.4,24.8,86,29.84,10.0,SE,23.0,29.9,N/A,,Overcast,130,2013-04-05 14:35:00
9:55 AM,28.4,26.6,93,29.83,10.0,SE,23.0,28.8,N/A,,Overcast,130,2013-04-05 14:55:00
10:15 AM,28.4,24.8,86,29.82,10.0,SE,25.3,29.9,N/A,,Overcast,130,2013-04-05 15:15:00
10:35 AM,28.4,26.6,93,29.80,10.0,SE,26.5,32.2,N/A,,Overcast,130,2013-04-05 15:35:00
10:55 AM,28.4,26.6,93,29.80,9.0,SE,21.9,29.9,N/A,Rain,Freezing Rain,130,2013-04-05 15:55:00
11:15 AM,30.2,26.6,86,29.79,10.0,SE,26.5,32.2,N/A,,Mostly Cloudy,130,2013-04-05 16:15:00
11:35 AM,30.2,26.6,86,29.79,10.0,SE,20.7,-,N/A,,Mostly Cloudy,130,2013-04-05 16:35:00
11:55 AM,32.0,26.6,80,29.78,10.0,SE,24.2,-,N/A,,Overcast,140,2013-04-05 16:55:00
12:15 PM,32.0,26.6,80,29.78,8.0,SE,25.3,29.9,N/A,,Mostly Cloudy,140,2013-04-05 17:15:00
12:35 PM,32.0,26.6,80,29.77,10.0,SE,20.7,29.9,N/A,,Overcast,140,2013-04-05 17:35:00
12:55 PM,32.0,26.6,80,29.74,10.0,SE,24.2,32.2,N/A,,Mostly Cloudy,140,2013-04-05 17:55:00
1:15 PM,32.0,26.6,80,29.74,10.0,SE,20.7,-,N/A,,Overcast,140,2013-04-05 18:15:00
1:35 PM,32.0,28.4,87,29.73,10.0,SSE,19.6,26.5,N/A,,Scattered Clouds,150,2013-04-05 18:35:00
1:55 PM,32.0,28.4,87,29.73,10.0,SE,15.0,-,N/A,,Scattered Clouds,140,2013-04-05 18:55:00
2:15 PM,32.0,28.4,87,29.73,10.0,SSE,15.0,-,N/A,,Partly Cloudy,150,2013-04-05 19:15:00
2:35 PM,33.8,28.4,81,29.71,10.0,SSE,17.3,-,N/A,,Scattered Clouds,150,2013-04-05 19:35:00
2:55 PM,33.8,26.6,75,29.70,10.0,SSE,18.4,21.9,N/A,,Mostly Cloudy,150,2013-04-05 19:55:00
3:15 PM,33.8,28.4,81,29.69,10.0,SE,16.1,-,N/A,,Mostly Cloudy,140,2013-04-05 20:15:00
3:35 PM,33.8,28.4,81,29.69,10.0,SE,13.8,-,N/A,,Mostly Cloudy,140,2013-04-05 20:35:00
3:55 PM,35.6,28.4,75,29.68,10.0,SE,11.5,-,N/A,,Scattered Clouds,130,2013-04-05 20:55:00
4:15 PM,35.6,28.4,75,29.68,10.0,SE,11.5,-,N/A,,Clear,130,2013-04-05 21:15:00
4:35 PM,35.6,28.4,75,29.67,10.0,ESE,10.4,-,N/A,,Clear,120,2013-04-05 21:35:00
4:55 PM,33.8,28.4,81,29.67,10.0,ESE,11.5,-,N/A,,Clear,120,2013-04-05 21:55:00
5:15 PM,33.8,28.4,81,29.66,10.0,ESE,10.4,-,N/A,,Clear,110,2013-04-05 22:15:00
5:35 PM,33.8,28.4,81,29.66,10.0,ESE,10.4,-,N/A,,Clear,110,2013-04-05 22:35:00
5:55 PM,33.8,28.4,81,29.66,10.0,East,11.5,-,N/A,,Clear,100,2013-04-05 22:55:00
6:15 PM,32.0,28.4,87,29.66,10.0,East,12.7,-,N/A,,Clear,100,2013-04-05 23:15:00
6:35 PM,32.0,28.4,87,29.66,10.0,ESE,13.8,-,N/A,,Clear,120,2013-04-05 23:35:00
6:55 PM,32.0,28.4,87,29.66,10.0,ESE,11.5,-,N/A,,Clear,110,2013-04-05 23:55:00
7:15 PM,32.0,28.4,87,29.66,10.0,ESE,11.5,-,N/A,,Clear,110,2013-04-06 00:15:00
7:35 PM,32.0,28.4,87,29.66,10.0,ESE,10.4,-,N/A,,Clear,120,2013-04-06 00:35:00
7:55 PM,32.0,28.4,87,29.65,10.0,ESE,10.4,-,N/A,,Clear,120,2013-04-06 00:55:00
8:15 PM,32.0,28.4,87,29.64,10.0,ESE,11.5,-,N/A,,Clear,120,2013-04-06 01:15:00
8:35 PM,32.0,28.4,87,29.64,10.0,ESE,9.2,-,N/A,,Clear,110,2013-04-06 01:35:00
8:55 PM,32.0,28.4,87,29.64,10.0,ESE,6.9,-,N/A,,Clear,110,2013-04-06 01:55:00
9:15 PM,28.4,28.4,100,29.64,10.0,East,5.8,-,N/A,,Clear,90,2013-04-06 02:15:00
9:35 PM,28.4,28.4,100,29.64,10.0,East,5.8,-,N/A,,Clear,90,2013-04-06 02:35:00
9:55 PM,28.4,28.4,100,29.64,10.0,East,4.6,-,N/A,,Clear,80,2013-04-06 02:55:00
10:15 PM,28.4,26.6,93,29.64,10.0,East,3.5,-,N/A,,Clear,100,2013-04-06 03:15:00
10:35 PM,28.4,28.4,100,29.65,10.0,SSE,3.5,-,N/A,,Clear,150,2013-04-06 03:35:00
10:55 PM,30.2,28.4,93,29.64,10.0,SSE,3.5,-,N/A,,Clear,150,2013-04-06 03:55:00
11:15 PM,32.0,28.4,87,29.64,10.0,Calm,Calm,-,N/A,,Clear,0,2013-04-06 04:15:00
11:35 PM,30.2,28.4,93,29.64,10.0,Calm,Calm,-,N/A,,Clear,0,2013-04-06 04:35:00
11:55 PM,28.4,28.4,100,29.63,10.0,Calm,Calm,-,N/A,,Clear,0,2013-04-06 04:55:00